Wetbulb
34.59 33.43 34.35 33.94 33.31 32.31 31.06 31.07 30.63 31.49 31.64 31.51 32.33 32.96 33.52 32.14 31.99 32.18 31.56 31.53 30.83 30.90 31.32 30.72 30.25 31.39 31.08 32.27 34.01 35.16 35.28 39.97 35.51 35.47 35.91 36.71 36.16 36.47 37.15 39.11 40.21 39.16 40.94
33.72 33.06 33.86 34.35 32.78 30.91 30.41 30.42 30.49 29.99 30.50 30.78 31.88 31.91 32.29 31.75 31.57 31.15 30.54 30.64 30.29 30.27 31.13 31.07 30.15 31.03 30.10 30.78 31.69 32.03 33.24 33.79 33.55 29.54 31.57 32.29 32.57 35.28 35.52 35.43 36.87 37.37 37.19
34.65 33.58 32.85 32.87 31.67 30.00 28.75 28.86 28.80 28.97 29.27 30.80 30.61 30.57 30.85 31.43 30.90 29.99 30.25 30.22 29.93 30.18 30.69 30.88 31.43 31.50 30.01 30.15 30.15 30.34 31.47 32.64 32.17 30.38 29.27 31.31 32.06 32.26 33.00 33.54 33.37 33.84 34.75
33.85 33.03 32.29 31.57 30.67 30.85 29.59 28.11 27.84 28.17 28.00 28.20 29.09 29.40 30.64 30.19 30.38 29.31 28.60 28.38 29.47 29.49 30.55 30.93 31.03 31.35 30.88 30.98 31.22 30.60 30.95 30.33 30.55 29.19 28.78 29.05 30.02 30.96 31.88 30.73 31.85 32.21 30.87
31.42 30.55 30.03 30.09 29.78 28.65 28.16 27.54 27.56 27.37 27.26 27.43 27.25 27.89 29.79 30.66 28.77 29.33 28.44 27.56 27.12 28.07 28.60 29.76 30.27 30.65 30.69 30.22 30.38 30.01 30.54 30.39 30.29 29.31 28.46 27.81 27.70 27.73 27.65 29.61 30.05 32.62 31.32
29.86 29.09 29.43 29.31 28.23 27.67 27.12 26.67 26.65 26.45 26.49 26.38 26.78 27.03 27.74 29.95 29.27 28.07 27.86 27.11 26.67 26.24 26.87 27.80 28.61 29.75 29.38 29.00 28.83 29.40 29.26 28.06 28.75 28.54 29.34 27.76 27.32 28.01 29.90 28.97 29.01 29.06 27.72
27.78 26.94 26.80 26.60 25.71 25.74 25.92 25.76 25.67 25.62 26.48 25.74 25.91 26.62 26.69 28.64 28.42 27.79 26.73 27.95 27.06 25.97 25.62 26.44 27.08 28.32 28.23 28.44 28.61 28.18 27.97 28.45 27.81 28.44 26.86 26.45 26.37 27.12 28.43 28.45 28.73 28.94 28.27
25.80 25.40 25.37 25.19 24.57 24.93 24.95 24.99 25.59 26.49 25.90 26.08 25.62 25.83 25.93 26.87 27.71 27.01 26.10 27.19 27.11 26.05 25.78 25.67 26.14 25.78 26.82 26.45 27.44 27.16 26.92 26.88 27.07 27.82 27.43 27.26 27.48 27.57 27.77 28.40 28.66 30.26 30.97
24.79 24.48 24.80 24.90 24.02 24.35 23.90 24.51 25.65 25.90 25.90 25.77 26.02 25.15 24.56 24.91 26.91 26.55 26.18 25.86 25.65 25.29 25.20 25.32 24.33 24.57 25.54 25.83 25.70 25.59 25.33 25.31 26.62 26.78 26.71 26.47 26.31 26.99 27.19 28.08 26.58 27.11 27.38
24.88 25.07 25.42 25.15 23.86 23.44 24.06 24.39 25.71 26.02 25.54 25.89 25.58 25.37 24.77 23.97 25.73 26.16 25.19 24.79 23.57 24.26 24.83 24.43 23.56 23.34 23.96 23.94 24.41 24.04 22.67 23.13 24.32 25.21 25.58 25.60 25.74 25.78 25.50 26.42 25.49 24.84 25.81
26.35 26.12 25.88 25.61 24.45 23.86 23.91 24.53 24.43 24.88 25.09 25.01 24.53 25.14 24.86 24.34 24.31 25.33 24.85 23.01 21.69 22.25 21.93 21.55 22.23 22.17 22.10 22.80 22.36 21.68 20.19 22.91 23.17 23.85 24.58 24.62 24.72 24.91 25.37 25.93 26.00 24.90 23.88
27.36 26.27 26.09 25.75 24.78 24.14 22.97 23.20 23.73 23.78 23.29 23.16 23.49 23.08 24.10 24.40 24.22 24.27 24.39 23.45 21.26 20.56 19.47 20.11 20.23 20.45 20.54 20.24 20.80 19.95 19.99 21.83 22.56 22.31 22.38 21.66 21.82 22.96 24.62 25.64 25.53 26.55 26.96
24.88 24.00 24.44 25.18 25.10 24.29 23.29 22.30 22.34 22.75 22.02 21.27 21.33 20.67 21.27 22.98 23.65 23.37 23.23 22.85 21.15 19.56 19.48 18.53 18.08 18.93 18.85 19.62 19.20 19.23 19.61 20.29 20.34 19.95 19.66 19.80 21.24 22.96 24.54 25.12 26.30 27.44 27.71
23.39 23.36 24.06 23.49 23.24 23.65 23.31 22.94 21.71 21.08 20.76 20.23 19.28 19.71 20.04 20.87 21.72 22.79 22.84 22.26 21.54 19.64 17.74 18.98 17.28 18.22 17.55 18.52 19.47 19.69 19.67 19.22 18.49 18.43 19.05 20.33 22.28 22.67 22.98 24.10 23.77 24.87 25.13
23.74 23.36 23.20 23.04 22.63 22.18 22.18 21.16 20.75 20.96 20.31 19.03 18.83 19.59 18.82 19.48 20.43 20.92 20.84 20.32 20.93 17.10 17.87 19.03 18.17 17.93 17.90 18.15 18.57 18.24 18.90 18.32 17.51 18.29 18.74 18.89 19.75 20.62 21.26 22.95 22.97 23.52 23.67
22.63 22.45 21.70 21.92 21.58 21.43 20.74 20.74 20.13 19.54 19.43 19.63 19.43 18.57 19.86 19.93 19.96 20.09 19.40 18.63 18.86 16.78 17.83 16.35 15.71 15.47 15.39 15.85 15.84 16.14 17.01 16.22 16.15 17.43 18.05 18.06 18.02 18.61 18.74 21.20 22.27 22.33 22.28
21.10 21.09 21.35 20.37 19.85 19.10 18.66 18.29 16.98 19.52 19.16 18.63 18.21 17.78 18.01 18.44 18.69 18.51 17.70 16.53 16.87 17.02 15.52 15.01 14.66 14.64 14.41 14.95 15.24 15.14 14.91 15.36 16.59 16.95 17.30 17.43 17.82 18.45 19.19 20.11 21.12 21.63 21.96
21.29 19.52 20.36 19.79 19.06 18.58 17.89 17.45 17.18 15.78 15.22 16.40 17.84 16.92 15.97 17.20 17.27 16.93 16.25 15.96 15.09 15.54 14.40 13.82 13.48 13.86 13.92 13.86 14.31 14.00 14.58 14.98 16.07 16.47 17.32 17.36 17.50 17.55 18.44 19.11 20.09 19.72 20.68
21.33 20.53 19.92 19.64 18.54 17.65 17.80 17.34 16.74 16.16 15.41 15.33 16.15 15.97 14.86 15.87 16.45 15.96 15.46 13.23 12.46 12.90 13.13 13.24 13.65 13.45 13.52 13.89 14.01 14.35 14.34 15.06 15.62 16.04 16.63 16.30 16.99 17.08 17.40 18.20 19.04 18.30 18.67
19.47 18.39 18.28 18.76 17.96 17.24 17.01 16.15 15.56 15.09 14.88 14.68 14.10 12.93 12.57 14.54 13.89 14.05 14.20 12.96 12.47 12.68 12.69 12.04 12.60 13.14 13.27 13.46 13.86 14.21 14.25 15.61 15.97 15.98 16.07 16.82 17.38 17.59 17.64 18.10 19.42 19.81 20.89
19.78 18.40 16.12 17.87 16.35 16.27 15.81 14.94 14.64 14.23 13.47 13.55 13.55 12.52 8.72 12.10 12.09 12.50 12.59 11.92 11.80 11.98 11.62 11.47 11.75 12.08 12.51 12.73 13.20 12.92 14.24 15.30 15.53 15.09 15.67 16.40 16.68 16.96 18.99 20.05 21.21 22.00 22.92
18.59 17.89 17.28 15.82 15.86 14.52 14.73 14.71 13.94 13.50 12.99 12.28 12.59 12.89 9.61 12.44 11.91 11.79 11.91 11.05 12.02 12.16 12.33 11.78 11.31 11.74 12.15 11.63 11.91 13.30 13.74 14.12 14.18 14.80 14.88 15.45 17.05 18.91 20.34 21.66 22.91 24.44 25.84
17.94 16.64 15.77 15.21 14.75 12.63 13.31 13.28 12.64 12.44 12.09 11.61 11.24 11.28 11.06 10.64 10.65 10.64 10.47 10.73 11.50 11.62 12.16 11.51 10.93 10.66 11.66 11.78 13.39 14.68 13.86 12.95 13.51 14.38 14.07 15.06 17.39 19.83 21.37 23.01 24.43 26.29 28.57
17.44 16.23 15.20 13.66 12.11 12.84 12.25 11.60 11.51 9.02 9.57 10.34 10.94 10.67 10.02 9.76 10.36 9.66 9.58 10.15 10.28 11.25 12.22 10.96 11.12 10.54 10.43 11.72 14.68 15.47 14.50 13.94 14.50 15.14 15.18 16.83 19.00 21.29 23.50 25.17 27.01 27.80 28.60
16.61 15.39 14.28 13.13 12.07 11.14 11.45 10.72 10.17 9.78 9.65 9.55 9.46 9.20 9.25 9.44 9.58 9.27 9.53 9.36 8.33 9.44 10.42 11.25 11.01 11.17 11.15 12.62 14.02 13.90 12.66 12.35 13.78 14.02 17.74 20.48 21.88 23.43 24.29 25.76 25.82 26.89 26.96
16.09 14.80 13.94 13.75 12.82 11.96 10.92 10.17 9.62 9.14 7.91 8.29 8.04 8.43 8.43 8.33 8.21 8.25 8.14 8.14 6.80 8.82 9.83 10.95 12.21 11.33 11.61 14.32 14.06 13.24 11.34 11.46 12.90 14.16 19.11 21.04 21.76 22.58 23.26 24.51 24.37 25.31 25.62
MSLP
1029.20 1028.90 1028.43 1027.92 1027.50 1027.13 1026.69 1026.16 1025.66 1024.97 1024.10 1023.04 1022.10 1021.14 1020.39 1019.63 1018.65 1017.84 1017.24 1016.57 1015.54 1014.42 1013.45 1012.07 1010.97 1010.41 1009.43 1008.77 1007.89 1007.29 1006.42 1004.93 1005.41 1006.68 1007.26 1006.80 1006.57 1006.43 1005.58 1005.10 1005.04 1004.99 1005.40
1029.70 1029.32 1028.73 1028.32 1028.13 1027.66 1027.23 1026.84 1026.38 1025.54 1024.64 1023.82 1022.79 1021.90 1021.08 1020.30 1019.58 1018.65 1017.75 1016.99 1015.91 1015.37 1014.30 1012.78 1011.95 1011.30 1010.46 1009.82 1008.96 1008.65 1007.83 1007.24 1007.07 1007.56 1008.00 1007.89 1007.51 1007.41 1007.34 1006.63 1006.19 1006.71 1006.97
1029.86 1029.44 1029.08 1028.88 1028.65 1028.41 1028.07 1027.58 1027.03 1026.13 1025.33 1024.34 1023.52 1022.62 1021.66 1020.95 1020.35 1019.77 1018.95 1018.06 1017.10 1016.52 1015.07 1013.80 1012.97 1012.33 1011.62 1011.02 1010.48 1010.29 1009.46 1009.03 1009.11 1008.88 1009.20 1009.00 1008.58 1008.29 1008.02 1008.03 1007.96 1007.99 1008.56
1030.31 1030.00 1029.77 1029.60 1029.33 1028.94 1028.59 1028.16 1027.56 1026.84 1026.08 1025.28 1024.30 1023.44 1022.41 1021.55 1020.71 1020.18 1019.56 1018.75 1017.62 1016.88 1016.03 1014.94 1014.26 1013.52 1012.96 1012.49 1012.19 1012.03 1011.33 1010.71 1010.53 1009.96 1009.84 1010.06 1009.69 1009.66 1009.44 1009.23 1009.18 1009.32 1009.77
1031.18 1030.85 1030.58 1030.34 1030.05 1029.68 1029.19 1028.67 1028.09 1027.53 1026.91 1026.23 1025.35 1024.22 1023.12 1022.19 1021.43 1020.67 1020.01 1019.33 1018.48 1017.43 1016.95 1015.91 1015.54 1014.99 1014.51 1014.13 1014.03 1013.52 1012.71 1011.93 1011.32 1011.06 1010.81 1010.96 1010.80 1010.57 1010.55 1010.70 1010.10 1010.17 1010.38
1031.78 1031.52 1031.25 1030.93 1030.63 1030.27 1029.84 1029.35 1028.87 1028.21 1027.56 1026.91 1026.11 1025.22 1024.22 1023.17 1022.21 1021.33 1020.38 1019.41 1018.95 1018.56 1017.53 1016.90 1016.56 1015.97 1015.44 1015.15 1015.35 1014.86 1014.32 1013.25 1012.57 1012.06 1012.00 1012.00 1011.88 1011.77 1011.31 1011.31 1011.09 1011.02 1011.19
1032.46 1032.28 1031.99 1031.67 1031.28 1030.94 1030.58 1030.04 1029.38 1028.92 1028.29 1027.60 1026.90 1025.97 1025.19 1024.35 1023.41 1022.29 1021.57 1020.60 1019.97 1019.54 1018.98 1018.24 1017.51 1016.92 1016.29 1016.03 1015.71 1015.47 1015.25 1014.62 1014.33 1013.89 1013.47 1013.13 1012.53 1012.68 1012.09 1011.61 1011.77 1011.76 1011.79
1033.09 1033.01 1032.75 1032.33 1031.89 1031.53 1031.13 1030.67 1030.10 1029.30 1028.58 1027.88 1027.42 1026.90 1026.01 1025.19 1024.37 1023.30 1022.32 1021.39 1020.81 1020.38 1020.03 1019.54 1018.72 1018.10 1017.63 1017.05 1016.39 1016.11 1015.78 1015.75 1015.58 1014.79 1014.54 1014.12 1013.73 1013.37 1012.79 1012.32 1012.27 1012.27 1012.26
1033.61 1033.65 1033.39 1032.89 1032.50 1032.16 1031.67 1031.17 1030.57 1029.98 1029.34 1028.59 1027.96 1027.29 1026.57 1025.75 1025.12 1024.15 1022.94 1022.19 1021.58 1021.13 1021.02 1020.68 1020.18 1019.45 1019.00 1018.37 1017.45 1016.79 1016.59 1016.34 1015.98 1015.71 1015.18 1014.96 1014.73 1014.38 1013.62 1012.85 1012.71 1012.48 1012.23
1034.25 1034.28 1033.92 1033.46 1033.16 1032.84 1032.36 1031.76 1031.06 1030.31 1029.67 1029.06 1028.41 1027.96 1027.49 1026.77 1026.06 1025.16 1024.27 1023.46 1022.60 1022.12 1021.84 1021.43 1021.24 1020.92 1020.43 1019.79 1018.82 1018.20 1017.51 1017.02 1016.60 1015.71 1015.22 1015.13 1014.79 1014.56 1014.41 1014.06 1013.95 1013.26 1013.08
1034.94 1034.75 1034.33 1033.96 1033.57 1033.48 1033.00 1032.28 1031.55 1030.78 1030.07 1029.37 1028.75 1028.22 1027.64 1027.21 1026.56 1025.88 1025.22 1024.45 1024.06 1023.23 1022.71 1022.47 1022.21 1021.91 1021.49 1020.85 1020.34 1019.84 1019.33 1018.43 1017.39 1016.54 1016.04 1015.68 1015.23 1014.96 1014.76 1014.53 1014.32 1014.11 1013.83
1035.29 1035.21 1034.75 1034.35 1034.04 1033.81 1033.47 1032.90 1032.18 1031.39 1030.60 1029.94 1029.23 1028.75 1028.24 1027.60 1027.15 1026.46 1025.82 1025.40 1025.26 1024.34 1024.02 1023.81 1023.46 1022.99 1022.31 1021.83 1021.15 1020.76 1020.00 1019.04 1018.35 1017.54 1016.88 1016.39 1015.90 1015.61 1015.27 1014.85 1014.52 1014.20 1013.95
1035.62 1035.58 1035.16 1034.71 1034.44 1034.17 1033.84 1033.47 1032.79 1032.11 1031.39 1030.81 1030.18 1029.67 1029.08 1028.51 1027.81 1027.30 1026.55 1025.93 1025.67 1025.29 1025.19 1024.88 1024.37 1023.55 1022.95 1022.27 1021.72 1021.10 1020.40 1019.89 1019.15 1018.24 1017.83 1017.46 1016.92 1016.36 1015.61 1015.07 1014.52 1014.04 1013.70
1035.99 1035.78 1035.49 1035.27 1034.93 1034.65 1034.47 1034.18 1033.76 1033.12 1032.50 1031.99 1031.47 1030.75 1030.14 1029.40 1028.65 1027.90 1027.15 1026.54 1026.05 1025.73 1025.59 1024.95 1024.67 1023.91 1023.22 1022.63 1021.94 1021.44 1020.97 1020.41 1019.74 1019.23 1018.69 1018.07 1017.28 1016.56 1015.89 1015.45 1014.76 1014.20 1013.66
1036.23 1036.16 1035.96 1035.77 1035.55 1035.25 1035.06 1035.19 1034.79 1034.61 1034.18 1033.47 1032.94 1032.21 1031.37 1030.43 1029.98 1029.47 1028.60 1027.75 1027.07 1026.95 1026.03 1025.20 1024.56 1023.91 1023.24 1022.76 1022.21 1021.77 1021.23 1020.78 1020.27 1019.73 1019.02 1018.37 1017.74 1017.20 1016.52 1016.00 1015.42 1014.79 1014.05
1036.52 1036.61 1036.72 1036.40 1036.22 1035.93 1035.67 1035.36 1035.60 1035.43 1035.02 1034.56 1034.09 1033.59 1032.71 1032.14 1031.19 1030.19 1029.47 1028.85 1028.00 1027.48 1026.30 1025.70 1025.16 1024.65 1024.04 1023.44 1022.83 1022.26 1021.80 1021.39 1021.01 1020.24 1019.52 1018.88 1018.20 1017.53 1016.95 1016.24 1015.68 1015.06 1014.33
1037.18 1037.28 1037.32 1037.17 1036.95 1036.80 1036.53 1036.11 1035.72 1035.33 1035.16 1034.88 1034.46 1034.00 1033.50 1032.59 1031.73 1030.96 1030.23 1029.50 1028.80 1027.81 1027.10 1026.63 1026.13 1025.54 1024.92 1024.23 1023.58 1023.01 1022.40 1022.06 1021.43 1020.66 1020.00 1019.31 1018.67 1017.89 1017.12 1016.34 1015.66 1015.03 1014.35
1037.76 1038.05 1037.96 1037.90 1037.78 1037.63 1037.38 1037.07 1036.70 1036.12 1035.46 1034.84 1034.52 1034.37 1034.07 1033.14 1032.28 1031.54 1030.82 1029.82 1028.98 1028.55 1028.26 1027.66 1027.05 1026.48 1025.87 1025.22 1024.54 1023.84 1023.11 1022.35 1021.51 1020.86 1020.10 1019.50 1018.83 1018.11 1017.22 1016.49 1015.85 1015.26 1014.55
1038.18 1038.39 1038.50 1038.52 1038.52 1038.37 1038.04 1037.68 1037.35 1036.95 1036.48 1035.98 1035.20 1034.50 1034.34 1033.58 1032.70 1032.08 1031.55 1030.94 1030.28 1029.47 1028.99 1028.40 1027.88 1027.19 1026.46 1025.75 1025.09 1024.40 1023.71 1022.79 1022.03 1021.19 1020.39 1019.75 1019.07 1018.33 1017.47 1016.78 1016.01 1015.36 1014.70
1038.94 1039.20 1039.14 1039.09 1039.07 1038.88 1038.61 1038.33 1038.03 1037.71 1037.30 1036.80 1036.30 1036.03 1035.40 1033.96 1032.97 1032.47 1032.08 1031.82 1031.19 1030.51 1029.91 1029.29 1028.58 1027.87 1027.11 1026.28 1025.42 1024.64 1023.73 1022.75 1021.95 1021.26 1020.61 1019.88 1019.16 1018.49 1017.56 1016.76 1015.95 1015.15 1014.28
1039.32 1039.62 1039.76 1039.71 1039.72 1039.55 1039.38 1039.16 1038.93 1038.62 1038.24 1037.78 1037.47 1037.41 1037.36 1035.75 1034.79 1033.99 1033.28 1032.77 1032.12 1031.39 1030.75 1030.06 1029.27 1028.45 1027.61 1026.76 1025.92 1025.04 1024.01 1023.12 1022.32 1021.58 1020.72 1019.90 1019.18 1018.23 1017.45 1016.59 1015.65 1014.77 1013.89
1039.83 1040.02 1040.21 1040.37 1040.35 1040.31 1040.13 1039.96 1039.74 1039.45 1039.12 1038.64 1038.17 1037.66 1037.43 1036.39 1035.77 1035.09 1034.41 1033.83 1033.12 1032.38 1031.65 1030.87 1030.03 1029.16 1028.29 1027.46 1026.49 1025.35 1024.34 1023.42 1022.67 1021.86 1020.98 1020.09 1019.12 1018.11 1017.14 1016.13 1015.13 1014.17 1013.20
1040.26 1040.52 1040.80 1040.98 1041.05 1041.10 1040.86 1040.68 1040.47 1040.22 1039.90 1039.52 1039.02 1038.37 1037.77 1037.29 1036.70 1036.01 1035.32 1034.64 1033.67 1032.83 1032.09 1031.36 1030.52 1029.63 1028.84 1028.04 1027.04 1025.93 1024.93 1024.14 1023.30 1022.47 1021.42 1020.33 1019.19 1018.10 1017.14 1015.99 1014.97 1013.92 1012.91
1040.70 1041.02 1041.29 1041.59 1041.82 1041.63 1041.53 1041.43 1041.25 1041.11 1040.80 1040.32 1039.81 1039.29 1038.75 1038.18 1037.46 1036.81 1036.11 1035.26 1034.32 1033.36 1032.39 1031.70 1030.82 1030.12 1029.21 1028.23 1027.05 1026.14 1025.42 1024.65 1023.57 1022.45 1021.63 1020.37 1019.15 1018.03 1016.96 1015.87 1014.91 1014.07 1013.29
1041.25 1041.58 1041.85 1042.09 1042.24 1042.24 1042.10 1042.02 1041.88 1041.70 1041.41 1041.04 1040.58 1040.06 1039.47 1038.86 1038.04 1037.42 1036.57 1035.68 1034.86 1033.77 1032.73 1031.90 1031.10 1030.20 1029.30 1028.20 1027.22 1026.32 1025.53 1024.51 1023.44 1022.57 1021.27 1020.14 1019.13 1018.13 1017.24 1016.28 1015.47 1014.56 1013.88
1041.62 1042.01 1042.30 1042.52 1042.66 1042.67 1042.65 1042.51 1042.41 1042.30 1042.09 1041.69 1041.24 1040.70 1040.16 1039.46 1038.80 1038.08 1037.13 1036.20 1035.36 1034.17 1033.27 1032.22 1031.29 1030.48 1029.52 1028.29 1027.42 1026.53 1025.58 1024.52 1023.45 1022.43 1021.29 1020.31 1019.41 1018.63 1017.84 1016.95 1016.17 1015.29 1014.58
Wind_Speed
15 14 14 15 16 15 13 14 14 15 16 17 17 15 15 17 17 16 15 15 15 15 15 15 18 16 12 11 10 9 8 6 7 5 7 9 10 12 13 12 13 15 12
12 13 15 14 15 15 15 15 15 15 16 15 15 16 15 15 16 17 16 15 16 17 16 17 18 14 17 15 11 13 12 13 7 10 8 8 10 10 10 14 12 12 12
13 14 14 15 13 15 15 14 14 15 16 16 16 15 16 15 14 16 16 16 16 15 17 18 18 18 18 13 14 12 10 10 9 7 6 5 6 10 9 8 10 10 9
14 14 15 14 15 14 14 14 15 15 16 17 18 16 15 15 14 15 16 15 16 17 17 17 18 18 19 18 14 12 10 9 8 9 8 7 7 7 6 7 7 8 8
14 14 14 14 13 13 14 14 14 15 15 16 17 17 16 15 14 15 15 16 17 17 17 16 17 22 25 23 13 15 13 9 8 8 9 8 8 7 9 6 6 4 6
12 13 13 13 13 13 13 14 14 15 15 16 15 16 17 14 29 27 20 14 15 17 18 18 17 22 20 21 21 23 20 13 13 9 9 9 12 9 8 7 6 4 2
13 14 14 13 13 13 13 14 14 14 14 15 16 16 17 17 30 28 23 13 14 15 17 16 16 15 20 16 15 16 18 21 16 11 10 11 11 10 9 8 9 6 4
13 13 13 13 13 13 13 13 13 13 15 14 15 15 15 15 29 29 21 14 13 15 16 19 17 19 21 18 14 12 12 12 13 10 11 10 11 10 9 7 7 3 2
13 12 13 14 14 14 14 14 13 12 12 12 13 16 18 18 29 29 20 14 14 14 13 15 18 17 24 24 14 14 12 12 10 13 13 14 13 16 13 6 7 5 3
12 11 12 12 13 13 13 13 12 12 12 10 12 14 18 17 26 28 24 12 14 11 12 14 22 19 22 22 14 13 12 13 12 11 10 10 11 11 13 9 6 5 4
10 10 11 13 13 13 13 12 12 12 12 13 14 13 16 18 20 27 26 15 12 10 11 11 11 22 20 20 18 13 12 12 11 9 8 8 8 9 8 8 7 4 4
9 10 10 10 10 10 13 12 13 13 13 14 14 13 13 16 24 24 26 24 21 11 11 10 11 18 17 17 14 16 15 10 8 7 8 9 8 8 8 8 8 6 5
9 8 10 10 10 11 11 12 10 13 12 13 12 12 12 13 13 25 24 24 22 11 10 14 17 16 15 12 17 16 13 9 8 8 8 8 8 8 9 8 7 7 6
8 9 9 10 10 10 8 9 10 11 12 11 12 13 12 13 14 14 12 13 19 13 13 10 10 11 10 10 10 11 9 9 9 8 8 8 8 8 7 8 7 8 6
8 9 9 8 9 9 8 9 9 11 13 12 12 11 12 13 15 21 19 12 12 13 10 8 10 10 10 10 10 10 10 9 9 9 8 8 8 8 7 7 6 6 6
8 8 8 7 7 7 7 7 12 13 16 19 19 14 11 18 23 25 25 21 22 18 8 10 11 11 11 11 11 10 10 11 10 9 8 8 8 8 8 7 6 6 6
9 8 6 7 7 8 8 8 9 10 12 17 21 21 22 21 23 24 25 20 20 17 11 11 11 12 12 12 11 11 11 11 11 9 8 8 8 8 9 7 7 7 6
8 10 6 6 7 7 7 8 7 9 11 11 16 18 22 23 22 24 24 15 11 13 11 10 11 11 11 11 11 11 11 11 11 10 10 9 9 9 9 9 8 9 9
7 6 6 6 6 7 7 7 8 8 9 9 10 12 17 22 20 21 21 12 12 12 12 11 11 11 11 11 11 10 11 10 11 10 10 10 9 9 9 9 9 11 11
7 9 8 6 6 7 7 8 8 9 9 9 10 12 13 14 13 13 13 12 11 11 11 11 11 11 11 11 11 11 11 11 11 10 10 10 9 9 9 10 9 9 9
5 6 7 6 6 7 7 8 8 8 8 8 9 11 16 11 11 12 12 12 12 12 12 12 11 11 11 11 11 11 12 12 11 11 11 10 10 10 9 9 9 9 9
5 6 6 6 6 7 6 6 7 7 8 9 9 10 14 10 10 11 12 11 11 11 10 11 10 10 11 12 12 13 13 13 12 12 12 11 10 10 9 10 10 9 10
6 6 6 5 6 5 6 7 7 8 8 9 9 10 11 10 10 11 11 11 11 11 11 10 10 11 10 11 11 12 12 13 13 12 12 11 10 10 10 10 10 10 10
6 6 5 5 5 5 6 7 7 8 8 8 9 9 10 10 10 12 11 11 11 11 11 11 11 14 13 12 12 12 11 12 11 11 14 10 10 12 10 10 10 12 9
6 5 5 5 4 5 5 6 6 7 7 7 8 8 9 9 10 11 11 11 11 11 13 12 11 15 17 19 19 21 19 20 15 16 9 10 12 13 11 9 12 10 12
5 5 4 4 4 4 5 5 6 6 7 7 7 8 8 9 10 10 11 12 12 12 14 11 14 20 20 16 21 23 22 22 19 19 11 10 10 10 11 12 15 10 12
Wind_Direction
20 16 19 20 18 13 10 8 5 1 5 5 4 6 3 11 6 6 8 5 11 3 360 12 16 10 11 7 13 11 11 5 108 76 39 30 35 30 30 38 45 43 23
19 13 13 12 16 13 13 9 6 5 8 3 359 7 2 12 7 2 4 8 12 7 4 17 22 14 15 12 14 17 25 33 58 71 36 30 39 25 34 41 41 44 30
13 14 16 17 21 16 14 9 8 9 9 7 7 0 6 5 13 9 9 11 17 7 10 15 18 21 21 13 15 12 20 34 37 56 48 17 36 24 24 33 37 40 40
11 14 14 18 12 11 16 12 14 12 12 9 8 1 3 9 9 12 9 9 18 17 16 22 21 22 24 19 18 9 15 32 36 46 48 33 30 20 25 22 38 48 32
16 16 14 12 19 16 16 15 11 14 10 11 7 3 0 15 12 13 4 14 15 17 17 21 25 27 28 30 21 21 18 26 42 44 54 46 36 31 30 7 19 32 59
16 15 13 12 16 17 16 16 16 11 12 10 7 8 3 13 12 11 9 15 21 15 18 19 20 24 23 30 27 30 35 25 36 38 43 45 40 27 30 25 22 12 19
22 19 15 14 16 18 16 12 9 11 8 15 13 12 12 11 13 13 6 14 16 20 18 18 18 21 20 14 25 28 36 35 32 32 39 35 37 22 15 27 24 19 36
28 21 19 17 17 14 14 14 11 6 8 9 13 11 15 14 14 13 9 13 19 23 22 19 17 18 17 10 11 23 31 31 26 31 34 29 31 22 18 18 3 357 49
30 21 15 17 16 14 13 8 8 9 10 12 16 14 14 13 12 15 10 16 13 22 20 24 18 18 14 10 10 12 18 23 22 28 38 36 35 31 26 27 25 22 33
29 21 19 17 20 13 9 8 4 10 13 13 20 20 18 13 15 17 15 14 11 12 16 16 22 16 12 17 12 7 8 4 1 6 18 18 27 32 32 35 16 17 7
28 23 22 24 23 15 11 10 10 9 13 15 17 17 16 16 12 15 19 17 7 6 13 9 9 8 12 16 16 15 8 344 357 4 10 11 14 17 15 14 12 7 347
23 17 19 20 21 18 14 12 14 13 14 15 16 15 14 12 12 10 13 20 12 11 9 6 358 3 9 11 17 13 9 4 6 9 9 9 3 3 358 357 353 343 325
34 21 22 21 17 18 15 15 13 15 15 13 11 12 7 8 7 8 9 9 16 11 6 3 359 4 5 12 12 14 15 14 10 12 8 4 355 344 345 352 349 349 338
33 25 23 21 16 19 21 17 18 15 14 13 10 8 3 5 4 6 4 2 7 8 360 2 359 5 13 11 13 15 18 13 8 6 359 352 348 352 354 357 347 349 340
39 30 26 24 16 20 30 22 22 28 22 12 12 5 2 4 4 3 3 1 4 359 350 4 10 11 12 12 12 13 12 9 9 360 357 355 354 350 351 347 346 339 335
42 31 25 25 20 21 20 25 41 27 27 25 23 18 6 7 4 4 6 7 8 8 12 10 12 9 9 4 4 3 4 4 0 353 352 351 347 344 345 337 339 336 327
49 37 31 25 27 22 18 17 9 10 22 24 20 19 13 7 8 7 6 4 11 11 18 12 8 4 0 358 358 357 355 356 343 351 348 347 342 337 336 336 337 334 330
65 51 40 33 28 24 22 19 14 10 4 3 9 9 9 5 7 9 10 7 14 19 13 6 1 358 357 354 352 350 348 346 349 347 345 345 343 338 336 338 335 332 328
57 51 46 40 35 27 24 25 22 17 11 4 357 4 5 359 8 13 14 18 6 6 4 2 358 355 352 349 348 346 344 342 341 339 342 339 338 334 331 329 324 324 318
68 56 49 42 35 30 29 26 22 17 12 11 10 6 355 355 6 6 11 10 5 2 358 355 353 352 350 348 345 345 341 345 345 343 340 336 334 329 324 323 322 320 318
75 67 51 48 38 32 30 28 22 17 13 10 8 9 356 357 2 3 3 4 360 357 354 350 348 348 346 346 346 344 341 340 342 338 335 334 331 326 325 318 315 314 309
78 69 57 48 42 38 28 29 24 19 13 8 2 4 1 11 6 2 2 -0 354 353 351 346 345 347 347 344 343 339 341 340 339 336 332 328 327 325 324 322 322 323 321
83 76 66 56 47 36 39 31 28 19 12 10 4 3 5 4 0 360 356 353 352 352 351 351 346 346 347 345 338 342 340 338 331 326 323 323 322 325 325 324 325 324 344
85 79 73 66 41 43 34 32 24 21 11 9 6 5 3 357 356 355 353 349 348 350 352 351 349 348 343 342 345 346 345 337 330 326 324 316 321 328 330 338 346 345 354
92 88 78 66 49 42 36 31 27 17 12 8 3 3 360 357 357 355 354 351 346 345 350 349 353 349 352 349 353 353 349 347 344 338 331 331 337 346 352 355 356 2 4
100 94 83 73 58 44 36 30 25 15 8 3 0 358 358 356 356 351 352 351 348 345 348 351 352 358 355 354 355 353 353 353 353 351 349 354 357 1 3 5 5 7 5